World > North America > United States > New York > Bovina Center  

Bovina Center, NY Hourly Weather Updates

Feedback E-mail the Weather

Quick Clicks

Bovina Center, NY Weather Maps

°F °C°F °C
Bovina Center Weather Map
UTC Time: 4/14/2024, 10:10
Your Time:

Bovina Center, NY Regional Weather

Expires:202404141000;;718490
ASUS41 KBGM 140910
RWRBGM

REGIONAL WEATHER ROUNDUP
NATIONAL WEATHER SERVICE BINGHAMTON NY
500 AM EDT SUN APR 14 2024

Note: "fair" indicates few or no clouds below 12,000 feet with no
significant weather and/or obstructions to visibility.

* = Station(s) that does not report precipitation, such as rain, 
snow, etc, also no thunder or fog.


NYZ009-015>018-022>025-036-037-044>046-055>057-062-141000
...Central New York...
  
CITY           SKY/WX    TMP DP  RH WIND       PRES   REMARKS
Binghamton     MOCLDY    40  31  70 SW6       29.85F                  
Cortland       MOCLDY    32  32 100 CALM      29.86F                  
Dansville      CLOUDY    47  34  60 SE6       29.88S                  
Elmira         CLOUDY    39  35  86 W7        29.88F WCI  34          
Endicott         N/A     36  36 100 CALM      29.88                   
Ithaca         MOCLDY    37  34  89 CALM      29.87F                  
Hamilton       CLEAR     32  32 100 CALM      29.85F                  
Monticello     NOT AVBL                                               
Norwich        CLEAR     32  32 100 S5        29.89F WCI  27          
Oneonta        SUNNY     34  32  93 SW3       29.84F                  
Penn Yan       CLOUDY    43  33  68 SW9       29.87S                  
Rome           CLEAR     33  31  92 CALM      29.86F                  
Seneca Falls   CLOUDY    43  34  70 CALM      29.88S                  
Sidney         SUNNY     34  32  93 CALM      29.88S                  
Skaneateles    CLOUDY    43  36  75 CALM      29.85F                  
Syracuse       MOCLDY    41  35  79 CALM      29.85F                  
$$
 

SKY/WX - Weather  TMP - Temperature  DP - Dew Point  RH - Humidity
WIND - Wind Direction/Speed PRES - Barometric Pressure VSB - Visibility
WCI - Wind Chill Index E13G22 Wind - East Wind 13 mph/Gusts of 22 mph

Trending Headlines

Trending Entertainment Headlines

Bovina Center Radar Loop

Use the map search tool if you want to place a location marker on the radar map...

Bovina Center Quick Facts

National Two Day Weather Forecast


E-mail the Bovina Center Weather Forecast

Voice your opinion or tell us about page issues...